EST,Max TemperatureF,Mean TemperatureF,Min TemperatureF,Max Dew PointF,MeanDew PointF,Min DewpointF,Max Humidity, Mean Humidity, Min Humidity, Max Sea Level PressureIn, Mean Sea Level PressureIn, Min Sea Level PressureIn, Max VisibilityMiles, Mean VisibilityMiles, Min VisibilityMiles, Max Wind SpeedMPH, Mean Wind SpeedMPH, Max Gust SpeedMPH,PrecipitationIn, CloudCover, Events, WindDirDegrees
2011-11-1,58,42,26,45,34,28,100,74,47,30.36,30.30,30.24,10,4,0,6,1,,0.00,3,Fog,266
2011-11-2,64,46,27,41,36,28,100,69,37,30.43,30.36,30.28,10,10,4,6,1,,0.00,0,,139
2011-11-3,64,48,31,43,38,30,100,64,28,30.28,30.12,29.94,10,10,5,9,2,16,0.35,0,,193
2011-11-4,57,49,40,48,45,37,100,79,57,30.17,29.96,29.83,10,9,2,12,5,16,0.30,5,Rain,26
2011-11-5,51,39,26,36,28,23,92,66,39,30.41,30.33,30.21,10,10,10,8,4,,0.00,0,,81
2011-11-6,60,42,23,39,30,27,100,95,89,30.49,30.44,30.42,10,10,10,0,0,,0.00,1,,-1
2011-11-7,66,47,27,50,38,30,100,71,42,30.43,30.39,30.33,10,6,0,4,1,,0.00,3,Fog,261
2011-11-8,68,49,30,48,41,32,100,70,39,30.35,30.28,30.22,10,8,0,7,1,,0.00,1,Fog,108
2011-11-9,70,51,32,52,44,34,100,71,41,30.22,30.12,30.02,10,9,0,8,2,,0.03,1,Fog,166
2011-11-10,52,42,32,54,41,28,100,81,62,30.02,29.95,29.91,10,9,2,15,7,30,T,5,,293
2011-11-11,43,36,29,28,25,21,82,62,41,30.13,30.04,29.94,10,10,10,16,8,31,T,2,,281
2011-11-12,60,42,24,34,29,25,92,62,32,30.24,30.19,30.14,10,10,7,12,4,21,0.00,0,,241
2011-11-13,59,44,29,37,33,30,96,68,40,30.19,30.14,30.08,10,10,10,8,1,17,0.00,0,,215
2011-11-14,72,55,38,54,50,39,100,73,46,30.10,30.04,29.96,10,10,10,16,5,28,0.00,1,,221
2011-11-15,61,55,49,63,57,54,100,92,84,30.02,29.99,29.96,10,9,2,8,2,,0.19,7,Rain,241
2011-11-16,64,54,44,64,56,46,100,93,86,30.00,29.87,29.75,10,7,1,10,4,17,0.56,7,Rain,280
2011-11-17,45,37,29,46,36,25,100,76,51,30.20,30.02,29.91,10,9,4,14,7,29,0.18,6,Rain-Snow,293
2011-11-18,46,34,22,25,19,14,85,60,34,30.48,30.39,30.28,10,10,10,15,5,21,0.00,0,,224
2011-11-19,57,39,21,39,29,19,92,67,41,30.42,30.36,30.29,10,10,10,10,2,16,0.00,0,,208
2011-11-20,67,50,33,57,50,36,100,82,63,30.33,30.28,30.23,10,9,2,8,2,,T,2,Rain,246
2011-11-21,63,58,52,61,58,55,100,94,87,30.29,30.25,30.21,10,8,2,6,1,,0.02,7,Rain,255
2011-11-22,63,57,51,61,57,54,100,91,81,30.23,30.13,29.93,10,6,0,10,4,18,0.47,7,Fog-Rain,137
2011-11-23,58,48,37,61,46,36,100,85,70,30.17,29.94,29.77,10,10,7,18,11,38,0.11,6,Rain,290
2011-11-24,57,44,30,39,36,34,100,70,40,30.36,30.31,30.21,10,10,10,13,4,20,0.00,0,,272
2011-11-25,65,46,26,41,33,28,100,63,26,30.38,30.33,30.26,10,10,7,5,1,,0.00,0,,271
2011-11-26,60,43,25,45,34,28,100,70,39,30.36,30.29,30.23,10,10,7,4,1,,0.00,0,,256
2011-11-27,64,55,45,52,50,45,100,82,63,30.21,30.14,30.07,10,10,10,17,8,35,0.00,5,,188
2011-11-28,61,57,53,59,56,54,100,90,80,30.06,30.00,29.86,10,9,3,18,11,24,0.28,7,Rain,121
2011-11-29,57,44,31,61,42,34,100,83,65,29.81,29.75,29.70,10,9,5,15,7,22,1.21,5,Rain,194
2011-11-30,42,35,28,36,32,28,100,85,70,30.13,29.91,29.75,10,10,10,18,11,28,T,6,,283